Погода в Хотуши

Россия / Тульская область     54°32′31″N   37°44′22″E
темп.,
°C
ветер,
м/с
пор.,
м/с
влажн.,
%
обл.,
%
осадки,
мм/ч
давл.,
гПа
погр.,
м
10 апреля, сб
сб1000:00+2ю32610 0.0 102719
03:00+1ю33630 0.0 102722
06:00+1ю35700 0.0 102868
09:00+5ю45530 0.0 1028407
12:00+8ююз45394 0.0 10271638
15:00+9юз44355 0.0 10261777
18:00+9юз34455 0.0 1025179
21:00+5ююз33570 0.0 102630
11 апреля, вс
вс1100:00+3юз35620 0.0 102766
03:00+2зюз34670 0.0 102855
06:00+2юз33720 0.0 102933
09:00+7юз34550 0.0 1030263
12:00+11юз22430 0.0 1030875
15:00+13зюз11380 0.0 10301105
18:00+12в2246100 0.0 103044
21:00+8в225765 0.0 103114
12 апреля, пн
пн1200:00+6в3366100 0.0 103235
03:00+5всв3671100 0.0 103296
06:00+3всв41278100 0.0 1031237
09:00+7всв61257100 0.0 1030397
12:00+9в6873100 0.0 1029522
15:00+12в6871100 0.0 1027647
18:00+12вюв4876100 0.0 1026419
21:00+9в3989100 0.0 1026172
13 апреля, вт
вт1300:00+9юв41187100 0.0 1024178
03:00+9ююв41181100 0.0 1024173
06:00+8ююв4885100 0.0 1024116
09:00+12ююв586699 0.0 1024248
12:00+17ююв6848100 0.0 1023829
15:00+18ююв6847100 0.0 10221344
18:00+16юв4954100 0.0 1021296
21:00+13юв4126586 0.0 1022256
14 апреля, ср
ср1400:00+10ююв51471100 0.0 1022291
03:00+10ююв477695 0.0 1021106
06:00+9юв3117876 0.0 1020215
09:00+13ююв61266100 0.0 1020508
12:00+17ююв71154100 0.0 10181229
15:00+17ю7953100 0.1 10181694
18:00+15ю4864100 0.3 1017324
21:00+12ююз4980100 0.9 1018308